Theta_e
338 333 320 315 305 302 298 302 305 307 306 304 306 304 302 304 306 298 315 328 325 327 335 349 354 352 350 350 349 348 347 345 342 340 339 339 338 338 338 338 337 337 336 336 336 336 335 334 333
333 325 317 313 303 297 299 306 307 309 308 304 303 303 302 303 312 317 322 330 326 328 335 346 354 352 351 351 350 349 348 345 343 341 339 338 339 340 340 339 338 339 339 339 339 339 338 338 336
324 317 311 309 302 298 299 307 308 312 313 307 303 307 307 307 315 319 324 331 329 329 337 344 354 353 352 352 351 350 349 347 344 342 341 342 342 343 343 341 341 340 340 339 339 339 340 339 339
318 319 315 304 301 305 305 309 310 309 310 305 305 304 309 314 315 320 324 331 330 331 337 345 353 353 353 353 352 351 348 347 345 345 344 344 344 343 343 343 342 341 341 341 339 339 340 341 340
320 314 306 301 303 306 309 311 309 306 305 305 306 305 306 313 319 320 329 330 328 329 334 341 353 353 353 353 352 351 350 350 348 346 345 346 344 343 343 341 341 341 341 341 340 339 342 343 342
311 308 299 297 302 305 307 310 307 306 306 304 304 305 306 312 317 322 329 327 328 328 332 339 351 353 353 353 353 352 351 350 348 348 347 345 344 343 341 340 340 340 340 340 339 340 341 341 340
308 303 299 300 302 304 306 309 305 304 306 306 306 303 306 310 316 325 329 327 327 329 332 337 344 350 353 353 352 352 351 351 350 350 348 345 343 340 337 336 336 337 338 338 339 339 340 340 339
312 305 299 301 301 301 308 307 306 306 307 310 311 304 304 309 315 318 323 325 327 330 331 335 341 345 345 347 353 352 352 351 350 347 345 343 337 336 336 335 334 334 335 335 336 337 338 340 340
310 300 297 299 300 302 305 304 309 312 308 307 310 309 312 314 314 316 317 320 323 330 331 333 336 338 338 339 344 351 350 348 346 342 341 337 330 328 330 331 333 332 332 334 335 336 336 338 338
307 299 300 305 305 304 305 306 309 308 310 309 310 311 313 313 312 313 315 318 318 323 324 329 330 332 332 336 333 334 334 332 330 330 328 329 327 324 325 327 330 331 332 334 335 336 336 337 333
306 303 308 307 309 307 308 308 311 308 307 311 308 311 311 311 310 312 314 317 319 323 323 324 326 327 326 325 324 323 325 324 324 325 326 325 323 322 323 323 323 323 326 326 328 328 329 332 331
302 308 310 310 310 308 308 311 310 312 311 315 315 314 311 309 309 311 313 315 313 313 317 318 321 322 321 320 320 320 321 321 321 321 324 322 320 320 320 320 320 321 323 323 324 325 328 330 330
303 307 309 311 309 309 311 309 310 310 316 317 315 312 310 310 311 312 313 314 312 309 312 316 317 318 318 319 320 319 320 322 321 321 322 321 320 319 320 320 321 322 324 323 323 324 325 327 328
305 307 307 307 308 310 309 309 310 313 317 313 310 310 309 310 310 310 310 310 309 310 312 315 318 317 319 320 319 319 320 321 321 321 321 322 321 320 320 321 323 323 322 321 321 323 324 325 326
299 296 299 301 303 303 307 302 304 311 312 308 309 309 309 310 311 310 312 312 312 310 314 316 317 320 320 320 320 320 320 321 321 322 323 324 323 322 322 321 321 322 321 321 321 322 324 323 324
295 294 291 298 302 303 303 295 304 308 306 306 307 308 308 308 311 312 313 311 310 313 315 318 322 321 320 319 319 320 320 321 322 323 323 324 324 323 321 321 321 321 321 320 320 320 321 322 322
291 289 290 293 301 301 300 295 303 305 305 305 307 308 308 308 308 312 311 309 314 316 317 318 320 320 320 318 318 319 321 321 322 323 323 324 325 326 322 320 320 321 320 320 319 319 321 320 320
288 288 290 291 297 298 295 296 301 304 303 304 305 306 306 307 308 308 309 312 316 317 318 319 319 319 318 317 318 319 320 321 322 324 325 326 326 326 322 320 320 320 320 319 318 319 320 321 321
293 291 290 293 299 297 295 296 299 303 302 301 303 304 305 305 308 309 310 314 316 317 317 317 317 316 317 316 316 318 319 320 322 324 325 326 326 324 321 319 319 321 320 319 318 318 320 319 320
294 292 291 295 300 297 296 295 299 301 301 301 304 304 305 305 309 309 310 313 316 316 316 315 316 316 317 316 319 320 320 321 322 323 324 327 327 325 322 319 319 321 319 318 318 319 318 319 320
293 292 292 293 298 296 294 293 296 302 302 303 304 305 305 305 307 308 310 312 314 315 315 316 316 317 317 319 319 319 319 320 320 321 322 324 326 326 324 321 321 320 319 317 318 319 320 317 318
290 297 297 296 292 286 294 284 294 297 299 301 303 302 303 305 309 308 310 311 314 314 315 316 316 317 318 320 318 318 317 315 318 320 321 323 326 326 324 323 322 320 319 317 318 320 320 321 317
294 300 297 295 290 287 289 286 291 295 296 299 302 303 302 305 308 308 310 313 314 315 315 316 316 316 319 318 319 318 316 317 319 319 320 321 323 325 324 323 321 320 320 319 319 320 321 321 320
301 295 293 292 288 283 289 289 289 292 298 299 301 303 306 306 307 309 312 313 313 315 315 315 316 316 318 319 319 318 317 317 317 317 319 318 321 322 323 322 321 321 321 320 320 321 321 321 322
296 289 281 279 279 281 291 288 292 296 299 301 301 302 305 306 307 309 310 311 311 314 314 314 316 316 318 319 319 318 318 318 316 318 318 319 319 320 320 321 320 321 321 321 321 321 321 322 324
293 290 282 277 278 284 291 286 292 300 303 303 304 303 306 306 307 309 310 311 312 314 314 315 314 316 318 319 319 318 319 318 318 319 319 319 319 320 320 322 322 322 322 321 321 322 321 323 324
291 288 291 285 287 284 286 291 297 300 302 304 303 305 304 306 306 308 309 310 311 313 314 314 314 315 316 318 319 319 319 320 319 321 320 320 320 321 321 322 322 323 323 322 322 322 322 323 322
293 295 286 286 280 279 285 288 290 296 299 303 303 303 304 306 306 308 309 310 312 313 314 314 314 314 316 317 319 320 321 323 322 321 321 322 322 323 322 322 322 323 323 324 325 325 325 324 324
287 288 286 288 285 281 280 286 295 297 300 302 303 303 304 306 307 308 308 310 311 312 312 314 313 313 316 317 317 321 322 322 320 321 322 322 322 323 322 322 322 323 322 323 323 324 325 324 324
294 290 290 286 283 285 286 287 298 299 299 302 303 305 305 307 308 309 309 309 310 311 311 313 314 314 316 317 319 321 322 320 319 321 321 322 322 323 323 323 323 323 322 323 323 323 324 324 323
Wind_Speed
6 5 3 3 4 4 4 7 2 4 2 3 7 6 9 5 8 8 4 12 8 14 12 18 21 20 19 18 17 16 15 15 14 14 13 12 11 11 11 10 8 9 8 8 7 6 6 7 6
5 4 2 3 4 1 6 4 5 7 4 1 1 1 2 5 3 3 4 8 9 14 13 16 23 22 21 18 16 15 15 15 14 14 13 13 13 13 12 10 10 12 11 10 9 8 7 8 8
6 1 3 4 2 5 5 5 4 8 6 6 3 3 1 4 2 5 6 12 9 13 13 16 24 22 20 19 17 17 16 15 16 15 14 14 14 13 14 12 13 14 14 13 12 11 10 10 9
2 4 4 3 5 7 5 7 2 9 8 5 4 4 2 7 6 8 8 12 11 11 12 16 22 21 20 19 18 18 17 16 16 15 15 16 14 14 15 14 16 15 15 14 14 12 13 11 12
4 3 0 1 5 6 7 7 4 7 5 5 5 6 4 3 3 6 10 12 13 8 9 12 20 21 20 20 19 18 17 17 17 16 15 15 13 13 15 14 16 16 15 15 15 15 13 12 13
4 3 1 4 5 5 7 8 2 4 4 3 2 1 6 3 5 7 8 10 8 12 8 8 19 20 20 19 18 17 17 16 16 14 13 12 13 13 13 12 13 14 14 15 16 16 14 12 12
5 4 5 4 5 6 6 4 4 1 4 5 1 3 6 5 9 8 8 7 7 7 8 9 12 16 19 18 18 17 16 15 14 13 11 12 11 11 10 11 12 14 15 15 15 16 15 13 12
5 4 3 5 3 9 6 3 4 2 5 0 4 4 9 5 7 8 5 5 6 7 8 10 8 10 9 9 17 16 15 14 12 12 12 11 10 10 10 10 9 11 14 16 16 18 17 15 13
5 1 6 8 9 10 3 1 1 3 4 3 5 5 6 3 7 7 4 2 3 4 7 7 8 8 7 6 7 12 15 13 12 11 12 8 3 5 6 8 11 12 13 13 15 17 18 16 15
6 7 11 8 7 7 1 1 5 3 7 9 8 8 3 6 6 9 9 12 8 10 8 8 7 6 6 5 5 4 4 2 3 4 6 3 4 4 5 8 12 12 13 14 14 14 12 16 4
7 14 19 9 8 1 6 9 2 4 10 12 8 12 3 6 8 12 14 12 19 14 7 9 7 7 6 5 4 2 2 2 3 5 5 4 3 3 3 2 2 2 7 3 5 5 4 4 4
4 12 19 17 9 4 8 5 12 13 18 17 15 9 5 9 13 16 15 14 10 9 9 8 8 7 6 3 4 4 3 3 3 4 5 4 3 3 4 3 4 3 3 3 3 2 3 4 4
8 12 8 13 10 9 8 12 15 18 25 14 11 9 12 12 17 16 16 10 8 9 7 8 7 7 6 6 4 3 4 4 4 4 5 4 4 5 4 4 3 4 2 3 3 3 3 3 4
5 13 14 6 12 14 17 14 7 20 22 15 11 15 11 12 17 12 9 13 13 8 9 9 10 8 7 6 5 4 4 4 4 4 5 6 5 5 4 4 5 3 3 3 3 3 3 3 3
4 5 7 8 9 7 12 13 18 26 13 11 16 15 13 13 10 17 23 22 12 8 12 12 10 8 8 7 6 4 4 4 4 5 6 7 6 6 5 4 4 3 3 3 2 2 2 2 3
4 4 3 5 6 7 11 13 20 16 11 16 17 14 10 13 15 20 20 10 9 13 14 11 9 8 7 6 5 4 4 4 4 4 4 6 6 6 5 4 4 3 3 2 2 2 2 3 3
2 10 8 6 8 5 9 9 13 7 5 12 15 15 13 14 11 16 11 8 12 14 15 13 8 9 8 6 4 5 5 4 4 4 4 6 5 5 5 4 3 4 2 3 2 2 2 3 3
9 5 6 9 4 6 10 15 19 20 10 17 15 13 11 12 18 8 10 11 13 13 13 11 7 7 6 3 3 2 3 4 4 4 3 5 3 4 4 3 3 3 3 3 3 3 2 2 3
6 12 14 1 3 5 9 8 16 18 9 12 13 14 15 10 4 4 8 12 14 13 13 11 10 7 5 3 2 2 3 2 2 3 5 5 4 4 4 3 3 3 4 4 4 3 4 2 3
12 17 13 7 5 6 11 14 14 17 14 9 15 16 12 6 4 4 7 12 16 17 15 11 9 8 5 3 2 2 1 3 3 3 3 3 4 4 4 4 4 4 3 4 5 4 3 2 3
19 21 17 16 2 5 8 14 14 18 9 7 10 12 9 7 6 6 8 9 8 13 11 10 9 8 5 5 2 2 1 2 2 2 2 2 3 3 5 4 4 4 3 4 5 5 4 3 2
20 17 17 11 4 6 5 8 12 11 14 8 11 8 9 4 5 7 8 9 12 10 7 9 8 8 5 5 2 2 2 1 2 1 1 2 2 2 3 4 4 4 3 4 4 3 2 3 4
15 13 14 9 7 2 4 5 7 4 12 12 10 11 8 5 8 9 10 12 10 10 8 7 7 6 5 5 4 3 1 2 1 1 2 2 1 2 3 4 4 4 3 3 5 5 3 2 3
4 3 3 2 4 7 10 7 6 6 16 6 6 4 1 7 8 10 10 11 8 6 7 7 8 5 5 5 4 3 2 2 0 1 2 2 1 1 2 4 3 4 4 5 4 4 4 3 2
11 9 1 3 2 6 7 9 13 11 10 9 9 8 6 3 11 14 16 12 9 8 8 7 7 6 5 5 4 3 3 2 1 1 2 1 1 1 3 3 3 2 3 4 4 4 4 4 4
18 14 9 8 4 6 9 9 9 21 17 12 10 3 8 9 6 13 13 12 11 9 8 8 7 6 5 5 4 2 2 1 1 1 1 0 1 2 3 3 3 4 4 4 4 3 3 3 2
11 17 11 5 2 2 5 7 6 9 9 6 5 7 8 9 8 12 12 11 9 9 9 9 7 5 5 5 4 3 3 1 1 1 1 1 2 3 4 3 4 4 4 4 4 3 4 4 4
15 11 9 7 7 5 6 5 7 4 5 3 2 6 7 7 9 10 10 10 7 8 7 6 6 7 5 5 4 3 2 1 1 2 4 2 2 3 4 4 4 5 4 6 5 4 5 7 4
5 11 3 6 6 6 1 8 8 7 7 9 9 8 9 11 12 12 9 8 8 6 7 7 6 6 5 5 3 3 4 3 2 2 3 1 2 3 4 4 4 5 6 6 5 5 5 7 7
14 12 12 11 13 4 4 7 5 8 7 4 8 9 8 8 10 11 11 9 8 8 7 7 6 6 5 5 4 3 5 3 3 3 3 3 3 3 4 5 6 6 7 6 7 6 5 7 7
Wind_Direction
159 146 155 60 53 63 251 254 259 290 265 239 137 167 189 165 167 209 305 177 140 153 159 172 180 186 189 191 189 186 186 187 191 196 200 208 216 218 217 218 233 254 263 272 271 263 252 260 260
156 152 46 91 104 87 260 247 221 236 231 118 245 226 187 241 193 250 121 193 153 154 165 174 184 189 192 192 190 188 192 194 199 206 210 215 221 229 229 236 240 243 248 249 256 266 266 261 256
167 95 88 110 145 204 218 224 250 303 270 222 229 198 159 235 228 198 220 153 144 164 170 182 187 189 192 193 189 192 196 199 203 212 220 224 229 235 239 237 245 248 252 252 246 252 246 256 258
128 24 36 106 231 262 227 269 308 321 323 181 168 248 255 216 168 194 148 152 156 173 177 186 185 188 193 193 194 195 198 204 210 217 226 237 234 237 242 243 247 249 253 255 260 258 265 253 245
44 55 42 271 248 257 251 254 281 292 281 265 171 239 239 256 233 154 151 160 170 164 176 178 187 188 192 195 198 199 202 205 211 217 231 241 249 250 255 256 256 257 251 253 257 254 254 255 252
60 92 61 238 229 254 274 248 255 231 252 300 256 110 258 324 165 188 161 172 169 166 167 168 187 193 194 197 199 202 205 209 213 222 232 241 249 254 259 262 264 261 255 260 263 265 263 261 252
122 109 234 255 254 273 234 182 200 314 328 313 146 207 262 263 214 175 168 146 154 156 159 175 185 195 198 199 200 202 206 210 213 224 231 239 239 249 260 269 272 269 265 264 265 260 264 263 253
132 119 239 237 222 265 213 201 136 132 282 139 160 258 267 256 167 126 118 146 160 163 183 185 184 184 194 203 204 201 206 213 216 220 222 228 239 249 258 269 274 275 272 266 264 266 264 261 253
112 103 242 233 171 243 185 346 228 158 244 285 222 225 245 80 117 105 119 187 195 207 198 182 185 176 165 179 205 206 211 213 215 219 222 219 208 237 261 270 267 269 265 259 254 254 260 260 252
157 178 231 209 188 242 215 145 349 312 319 271 278 263 304 144 179 173 189 203 205 211 202 189 172 176 158 166 183 184 212 202 196 204 214 206 212 220 229 244 254 258 260 261 269 276 281 245 207
189 220 231 268 234 233 285 297 183 291 289 272 266 292 243 188 203 204 208 203 207 210 194 180 168 161 170 170 159 179 190 199 212 224 221 211 204 226 240 246 265 278 269 278 280 290 284 231 192
194 229 233 253 261 277 260 315 294 283 259 268 279 261 226 197 210 212 214 208 198 197 188 169 162 157 176 157 182 180 182 202 220 230 222 194 214 224 228 225 225 225 227 248 249 262 274 231 184
234 239 241 252 276 243 267 256 263 288 279 280 270 268 234 215 216 218 227 223 197 204 171 162 148 160 162 176 183 175 200 208 217 219 211 191 210 221 216 224 218 220 211 222 244 248 253 227 192
206 238 248 268 270 275 269 276 275 266 270 279 277 277 247 223 221 215 212 222 207 173 152 152 166 160 155 175 183 199 206 214 214 224 218 213 214 216 214 218 223 215 195 216 229 230 213 210 187
214 226 262 230 240 249 275 268 249 262 282 266 270 265 267 231 218 215 221 217 197 169 143 161 160 160 166 181 192 197 219 200 219 226 221 220 211 212 217 220 219 210 210 222 223 219 194 184 183
202 168 232 232 216 245 167 261 267 273 259 264 269 266 255 251 219 225 228 216 151 138 153 157 163 165 169 182 191 207 225 220 230 226 219 219 217 205 207 216 214 192 200 201 211 184 187 191 186
268 253 238 297 221 236 177 273 262 283 277 272 274 274 269 267 248 234 215 154 148 146 149 158 156 164 176 190 203 220 240 237 236 227 221 219 217 204 195 206 207 195 188 196 182 183 184 181 190
211 228 227 225 241 236 261 265 278 276 260 256 264 265 262 259 251 235 160 146 144 141 146 146 149 161 170 177 208 239 243 241 234 237 231 223 214 198 195 200 208 191 184 184 172 173 175 172 177
210 232 243 271 218 246 247 268 269 275 250 261 270 267 264 258 256 184 152 142 136 145 144 148 148 170 150 170 190 226 233 269 277 266 257 221 212 194 185 197 199 189 197 189 177 151 164 161 159
208 230 245 266 206 235 270 272 266 282 267 239 264 278 272 242 210 141 139 153 162 153 147 143 150 160 179 181 193 178 194 261 263 281 291 229 222 195 184 189 193 188 181 175 165 169 150 133 170
215 220 233 239 348 268 314 289 288 281 268 264 254 249 263 255 217 141 148 146 131 135 143 149 151 163 177 181 117 61 14 319 334 332 359 280 236 203 188 185 180 191 175 177 178 180 148 135 179
224 213 235 253 217 240 128 285 292 300 297 261 288 289 271 189 134 154 133 121 135 142 140 134 150 163 172 157 129 144 167 239 248 270 286 291 6 180 171 181 181 188 173 183 182 160 153 136 148
235 178 210 211 224 225 244 289 260 266 285 279 280 280 288 162 152 145 133 137 138 137 147 145 149 156 161 156 150 135 170 231 258 302 315 329 16 126 163 161 169 173 175 176 172 159 174 172 148
180 86 69 65 101 246 245 198 247 217 235 262 263 300 360 133 125 119 129 132 127 128 136 145 150 163 165 172 150 142 199 199 127 328 319 339 327 104 135 139 155 170 176 175 174 173 176 186 169
182 107 319 322 274 224 203 200 239 260 242 228 256 270 154 150 139 145 148 144 139 152 150 149 153 155 185 177 154 159 210 175 139 351 293 311 136 155 143 125 154 181 154 141 145 161 164 180 181
186 164 164 184 208 243 171 212 245 233 245 246 253 186 145 141 171 152 149 145 155 155 157 157 155 168 187 174 176 181 206 164 147 258 289 333 191 168 146 132 144 121 124 131 135 134 158 169 157
180 206 169 119 196 96 231 265 293 218 211 208 159 153 160 151 161 153 150 152 152 155 169 163 167 175 185 182 166 204 189 124 262 247 97 77 136 135 140 142 123 97 107 128 132 128 119 115 102
187 146 172 199 190 216 280 278 225 181 236 272 206 187 149 149 149 157 156 153 155 164 164 160 176 174 186 165 171 213 144 107 117 145 104 101 121 124 143 132 105 99 107 113 125 105 114 124 113
132 184 122 159 152 159 199 262 224 204 201 197 212 173 171 166 161 164 157 158 157 153 158 174 170 173 178 154 177 196 100 103 100 103 93 98 148 151 152 141 123 114 121 120 114 116 128 117 123
198 177 176 198 191 186 164 273 239 226 223 222 190 155 156 160 165 158 158 149 154 165 168 181 179 183 184 153 173 157 111 96 91 78 85 102 123 140 146 133 117 114 113 117 120 126 122 118 124